Weather History for KMUT - January, 2012

Change the Weather History Date:

Tuesday, January 31, 2012

  Actual Average Record
Temperature  
Mean Temperature 52 °F -  
Max Temperature 60 °F 34 °F 69 °F (1989)
Min Temperature 42 °F 14 °F -16 °F (1963)
Degree Days  
Heating Degree Days 13    
Growing Degree Days 2 (Base 50)    
Moisture  
Dew Point 42 °F    
Average Humidity 70    
Maximum Humidity 82    
Minimum Humidity 59    
Precipitation  
Precipitation 0.00 in - - ()
Sea Level Pressure  
Sea Level Pressure 29.81 in    
Wind  
Wind Speed 10 mph (SW)    
Max Wind Speed 16 mph    
Max Gust Speed 21 mph    
Visibility 10 miles    
Events      
Averages and records for this station are not official NWS values.
T = Trace of Precipitation, MM = Missing Value Source: NWS Daily Summary

Daily Weather History Graph

Daily Weather History Graph

Search for Another Location

Airport or City:

Trip Planner

Search our weather history database for the weather conditions in past years. The results will help you decide how hot, cold, wet, or windy it might be!

Date:

Astronomy

Jan. 31, 2012 Rise Set
Actual Time 7:17 AM CST 5:19 PM CST
Civil Twilight 6:48 AM CST 5:48 PM CST
Nautical Twilight 6:14 AM CST 6:21 PM CST
Astronomical Twilight 5:42 AM CST 6:54 PM CST
Moon 11:08 AM CST (1/31) 1:05 AM CST (1/31)
Length of Visible Light 11h 00m
Length of Day
10h 01m
First Quarter, 55% of the Moon is Illuminated
Jan 31
First Quarter
Feb 7
Full
Feb 14
Last Quarter
Feb 21
New
Feb 29
First Quarter

Hourly Weather History & Observations

Time (CST) Temp. Windchill Dew Point Humidity Pressure Visibility Wind Dir Wind Speed Gust Speed Precip Events Conditions
12:15 AM 46.4 °F 42.9 °F 37.4 °F 71% 29.82 in 10.0 mi SSW 6.9 mph - N/A   Clear
12:35 AM 46.4 °F 42.4 °F 37.4 °F 71% 29.82 in 10.0 mi SSW 8.1 mph - N/A   Clear
12:55 AM 46.4 °F 42.4 °F 37.4 °F 71% 29.82 in 10.0 mi SSW 8.1 mph - N/A   Clear
1:15 AM 46.4 °F 42.4 °F 37.4 °F 71% 29.82 in 10.0 mi SSW 8.1 mph - N/A   Clear
1:35 AM 46.4 °F 41.9 °F 37.4 °F 71% 29.82 in 10.0 mi SSW 9.2 mph - N/A   Clear
1:55 AM 46.4 °F 41.9 °F 37.4 °F 71% 29.82 in 10.0 mi SSW 9.2 mph - N/A   Clear
2:15 AM 46.4 °F 41.5 °F 37.4 °F 71% 29.82 in 10.0 mi SSW 10.4 mph - N/A   Clear
2:35 AM 46.4 °F 41.5 °F 37.4 °F 71% 29.82 in 10.0 mi South 10.4 mph - N/A   Clear
2:55 AM 46.4 °F 41.5 °F 39.2 °F 76% 29.81 in 10.0 mi South 10.4 mph - N/A   Clear
3:15 AM 46.4 °F 40.7 °F 39.2 °F 76% 29.80 in 10.0 mi South 12.7 mph - N/A   Clear
3:35 AM 48.2 °F - 39.2 °F 71% 29.80 in 10.0 mi SSW 15.0 mph - N/A   Clear
3:55 AM 48.2 °F - 39.2 °F 71% 29.80 in 10.0 mi SSW 12.7 mph - N/A   Clear
4:15 AM 48.2 °F - 39.2 °F 71% 29.79 in 10.0 mi SSW 11.5 mph - N/A   Clear
4:35 AM 48.2 °F - 39.2 °F 71% 29.79 in 10.0 mi South 11.5 mph - N/A   Clear
4:55 AM 48.2 °F - 39.2 °F 71% 29.79 in 10.0 mi SSW 11.5 mph - N/A   Clear
5:15 AM 48.2 °F - 39.2 °F 71% 29.79 in 10.0 mi SSW 12.7 mph - N/A   Clear
5:35 AM 48.2 °F - 39.2 °F 71% 29.79 in 10.0 mi South 11.5 mph - N/A   Clear
5:55 AM 48.2 °F - 39.2 °F 71% 29.79 in 10.0 mi SSW 9.2 mph - N/A   Clear
6:15 AM 48.2 °F - 41.0 °F 76% 29.79 in 10.0 mi South 12.7 mph - N/A   Clear
6:35 AM 46.4 °F 41.1 °F 41.0 °F 81% 29.79 in 10.0 mi South 11.5 mph - N/A   Clear
6:55 AM 46.4 °F 41.5 °F 39.2 °F 76% 29.79 in 10.0 mi South 10.4 mph - N/A   Clear
7:15 AM 46.4 °F 41.5 °F 39.2 °F 76% 29.79 in 10.0 mi South 10.4 mph - N/A   Clear
7:35 AM 46.4 °F 41.5 °F 39.2 °F 76% 29.80 in 10.0 mi South 10.4 mph - N/A   Clear
7:55 AM 46.4 °F 42.4 °F 39.2 °F 76% 29.80 in 10.0 mi South 8.1 mph - N/A   Clear
8:15 AM 46.4 °F 41.9 °F 39.2 °F 76% 29.80 in 10.0 mi South 9.2 mph - N/A   Clear
8:35 AM 48.2 °F - 42.8 °F 82% 29.81 in 10.0 mi South 12.7 mph - N/A   Clear
9:15 AM 51.8 °F - 44.6 °F 76% 29.80 in 10.0 mi South 13.8 mph - N/A   Clear
9:35 AM 53.6 °F - 44.6 °F 72% 29.80 in 10.0 mi SSW 10.4 mph - N/A   Clear
9:55 AM 55.4 °F - 46.4 °F 72% 29.80 in 10.0 mi SSW 12.7 mph - N/A   Clear
10:15 AM 55.4 °F - 46.4 °F 72% 29.81 in 10.0 mi SSW 16.1 mph - N/A   Scattered Clouds
10:35 AM 55.4 °F - 46.4 °F 72% 29.81 in 10.0 mi SSW 16.1 mph - N/A   Mostly Cloudy
10:55 AM 55.4 °F - 46.4 °F 72% 29.82 in 10.0 mi SW 10.4 mph 20.7 mph N/A   Overcast
11:15 AM 57.2 °F - 46.4 °F 67% 29.81 in 10.0 mi SW 9.2 mph - N/A   Overcast
11:55 AM 59.0 °F - 48.2 °F 67% 29.79 in 10.0 mi SW 11.5 mph - N/A   Mostly Cloudy
12:15 PM 60.8 °F - 48.2 °F 63% 29.78 in 10.0 mi SW 12.7 mph - N/A   Mostly Cloudy
12:35 PM 59.0 °F - 48.2 °F 67% 29.78 in 10.0 mi SW 11.5 mph - N/A   Mostly Cloudy
12:55 PM 59.0 °F - 48.2 °F 67% 29.77 in 10.0 mi WSW 9.2 mph - N/A   Overcast
1:15 PM 59.0 °F - 48.2 °F 67% 29.77 in 10.0 mi WSW 12.7 mph - N/A   Overcast
1:35 PM 59.0 °F - 48.2 °F 67% 29.77 in 10.0 mi WSW 11.5 mph 18.4 mph N/A   Overcast
1:55 PM 60.8 °F - 48.2 °F 63% 29.77 in 10.0 mi WSW 13.8 mph - N/A   Overcast
2:15 PM 60.8 °F - 48.2 °F 63% 29.77 in 10.0 mi WSW 13.8 mph 18.4 mph N/A   Overcast
2:35 PM 60.8 °F - 48.2 °F 63% 29.77 in 10.0 mi WSW 12.7 mph 20.7 mph N/A   Mostly Cloudy
2:55 PM 59.0 °F - 48.2 °F 67% 29.77 in 10.0 mi West 12.7 mph - N/A   Mostly Cloudy
3:15 PM 60.8 °F - 48.2 °F 63% 29.78 in 10.0 mi WSW 16.1 mph - N/A   Scattered Clouds
3:35 PM 60.8 °F - 48.2 °F 63% 29.78 in 10.0 mi WSW 13.8 mph - N/A   Clear
3:55 PM 60.8 °F - 46.4 °F 59% 29.79 in 10.0 mi WSW 15.0 mph - N/A   Scattered Clouds
4:15 PM 60.8 °F - 46.4 °F 59% 29.80 in 10.0 mi WSW 16.1 mph - N/A   Scattered Clouds
4:35 PM 57.2 °F - 44.6 °F 63% 29.81 in 10.0 mi West 10.4 mph - N/A   Scattered Clouds
4:55 PM 55.4 °F - 44.6 °F 67% 29.81 in 10.0 mi West 8.1 mph - N/A   Clear
5:15 PM 53.6 °F - 42.8 °F 67% 29.82 in 10.0 mi West 8.1 mph - N/A   Clear
5:35 PM 51.8 °F - 41.0 °F 67% 29.84 in 10.0 mi West 9.2 mph - N/A   Clear
5:55 PM 48.2 °F - 41.0 °F 76% 29.85 in 10.0 mi West 8.1 mph - N/A   Clear
6:15 PM 48.2 °F - 41.0 °F 76% 29.86 in 10.0 mi West 9.2 mph - N/A   Clear
6:35 PM 48.2 °F - 41.0 °F 76% 29.87 in 10.0 mi West 6.9 mph - N/A   Clear
6:55 PM 46.4 °F 44.3 °F 39.2 °F 76% 29.88 in 10.0 mi West 4.6 mph - N/A   Clear
7:15 PM 46.4 °F 41.9 °F 37.4 °F 71% 29.89 in 10.0 mi WNW 9.2 mph - N/A   Clear
7:35 PM 46.4 °F 41.9 °F 37.4 °F 71% 29.90 in 10.0 mi WNW 9.2 mph - N/A   Clear
8:15 PM 46.4 °F 43.5 °F 35.6 °F 66% 29.92 in 10.0 mi WNW 5.8 mph - N/A   Clear
8:35 PM 44.6 °F 41.4 °F 35.6 °F 71% 29.93 in 10.0 mi WNW 5.8 mph - N/A   Clear
8:55 PM 42.8 °F 38.6 °F 35.6 °F 76% 29.94 in 10.0 mi WNW 6.9 mph - N/A   Clear
9:15 PM 44.6 °F 40.2 °F 35.6 °F 71% 29.95 in 10.0 mi WNW 8.1 mph - N/A   Clear
9:35 PM 42.8 °F 39.3 °F 35.6 °F 76% 29.96 in 10.0 mi WNW 5.8 mph - N/A   Clear
9:55 PM 42.8 °F - 35.6 °F 76% 29.96 in 10.0 mi Calm Calm - N/A   Clear
10:15 PM 42.8 °F - 35.6 °F 76% 29.97 in 10.0 mi Calm Calm - N/A   Clear
10:35 PM 42.8 °F - 35.6 °F 76% 29.97 in 10.0 mi Calm Calm - N/A   Clear
10:55 PM 42.8 °F - 35.6 °F 76% 29.98 in 10.0 mi Calm Calm - N/A   Clear
11:15 PM 42.8 °F - 35.6 °F 76% 29.99 in 10.0 mi Calm Calm - N/A   Clear
11:35 PM 41.0 °F 39.0 °F 33.8 °F 76% 29.99 in 10.0 mi West 3.5 mph - N/A   Clear
11:55 PM 41.0 °F 37.1 °F 33.8 °F 76% 30.00 in 10.0 mi West 5.8 mph - N/A   Clear